QPF
0.00 0.00 0.00 0.00 0.00 0.00 0.00 0.00 0.00 0.00 0.00 0.00 0.00 0.00 0.00 0.00 0.00 0.00 0.00 0.00 0.00 0.00
0.00 0.00 0.00 0.00 0.00 0.00 0.00 0.00 0.00 0.00 0.00 0.00 0.00 0.00 0.00 0.00 0.00 0.00 0.00 0.00 0.00 0.00
0.00 0.00 0.00 0.00 0.00 0.00 0.00 0.00 0.00 0.00 0.00 0.00 0.00 0.00 0.00 0.00 0.00 0.00 0.00 0.00 0.00 0.00
0.00 0.00 0.00 0.00 0.00 0.00 0.00 0.00 0.00 0.00 0.00 0.00 0.00 0.00 0.00 0.00 0.00 0.00 0.00 0.00 0.00 0.00
0.00 0.00 0.00 0.00 0.00 0.00 0.00 0.00 0.00 0.00 0.00 0.00 0.00 0.00 0.00 0.00 0.00 0.00 0.00 0.00 0.00 0.00
0.00 0.00 0.00 0.00 0.00 0.00 0.00 0.00 0.00 0.00 0.00 0.00 0.00 0.00 0.00 0.00 0.00 0.00 0.00 0.00 0.00 0.00
0.00 0.00 0.00 0.00 0.00 0.00 0.00 0.00 0.00 0.00 0.00 0.00 0.00 0.00 0.00 0.00 0.00 0.00 0.00 0.00 0.00 0.00
0.00 0.00 0.00 0.00 0.00 0.00 0.00 0.00 0.00 0.00 0.01 0.01 0.00 0.00 0.00 0.00 0.00 0.00 0.00 0.00 0.00 0.00
0.00 0.00 0.00 0.00 0.00 0.00 0.00 0.00 0.00 0.02 0.03 0.01 0.00 0.00 0.00 0.00 0.00 0.00 0.00 0.00 0.00 0.00
0.00 0.00 0.00 0.00 0.00 0.00 0.00 0.00 0.00 0.00 0.00 0.00 0.00 0.00 0.00 0.00 0.00 0.00 0.00 0.00 0.00 0.00
0.00 0.00 0.00 0.00 0.00 0.00 0.00 0.00 0.00 0.00 0.00 0.00 0.00 0.00 0.00 0.00 0.00 0.00 0.00 0.00 0.00 0.00
0.00 0.00 0.00 0.00 0.00 0.00 0.00 0.00 0.00 0.00 0.00 0.00 0.00 0.00 0.00 0.00 0.00 0.00 0.00 0.00 0.00 0.00
0.00 0.00 0.00 0.00 0.00 0.00 0.00 0.00 0.00 0.00 0.00 0.00 0.00 0.00 0.00 0.00 0.00 0.00 0.00 0.00 0.00 0.00
0.00 0.00 0.00 0.00 0.00 0.00 0.00 0.01 0.00 0.00 0.00 0.00 0.00 0.00 0.00 0.00 0.00 0.00 0.00 0.00 0.00 0.00
MSLP
1024.47 1024.45 1024.44 1024.41 1024.41 1024.39 1024.34 1024.15 1023.88 1023.89 1023.90 1023.94 1024.06 1024.11 1024.24 1024.23 1024.23 1024.25 1024.16 1024.28 1024.22 1024.04
1024.37 1024.34 1024.25 1024.16 1024.18 1024.16 1024.03 1023.77 1023.72 1023.73 1023.94 1024.07 1024.13 1024.15 1024.18 1024.21 1023.96 1024.14 1023.94 1023.85 1023.84 1023.74
1024.21 1024.13 1024.11 1024.11 1023.99 1023.89 1023.70 1023.68 1023.77 1023.88 1023.93 1023.85 1023.74 1023.80 1023.87 1023.83 1023.71 1023.86 1023.86 1023.81 1023.88 1023.83
1024.39 1024.47 1024.41 1024.26 1023.93 1023.65 1023.63 1023.70 1023.76 1023.61 1023.49 1023.49 1023.48 1023.33 1023.52 1023.59 1023.62 1023.70 1023.83 1023.85 1023.85 1023.78
1024.40 1024.34 1024.25 1024.14 1023.84 1023.61 1023.49 1023.36 1023.37 1023.24 1023.23 1023.15 1023.21 1023.05 1023.27 1023.46 1023.67 1023.76 1023.87 1023.91 1023.88 1023.72
1024.30 1024.31 1024.14 1023.86 1023.52 1023.29 1023.33 1023.20 1022.90 1022.93 1022.91 1022.82 1022.83 1023.16 1023.20 1023.58 1023.78 1023.87 1023.92 1023.88 1023.81 1023.47
1024.41 1024.21 1024.02 1023.75 1023.43 1023.18 1022.85 1022.88 1023.06 1022.94 1022.86 1022.59 1022.86 1023.24 1023.52 1023.83 1023.87 1023.87 1023.80 1023.65 1023.50 1023.32
1024.32 1024.10 1023.82 1023.60 1023.36 1023.22 1023.21 1023.18 1023.13 1023.03 1023.00 1022.95 1022.57 1022.96 1023.50 1023.72 1023.80 1023.69 1023.52 1023.35 1023.23 1022.97
1024.19 1023.99 1023.85 1023.67 1023.44 1023.25 1023.22 1023.15 1023.08 1023.07 1023.09 1022.97 1022.84 1023.10 1023.35 1023.43 1023.52 1023.58 1023.53 1023.36 1023.01 1022.70
1024.16 1024.12 1023.87 1023.67 1023.45 1023.33 1023.24 1023.16 1023.16 1023.12 1023.10 1023.11 1023.11 1023.25 1023.32 1023.37 1023.62 1023.73 1023.61 1023.34 1022.95 1022.46
1024.16 1024.11 1023.86 1023.57 1023.26 1023.06 1022.99 1022.97 1022.98 1023.10 1023.27 1023.22 1023.35 1023.38 1023.42 1023.61 1023.80 1023.74 1023.52 1023.20 1022.80 1022.34
1024.05 1023.83 1023.67 1023.55 1023.26 1022.97 1022.78 1022.72 1022.93 1023.14 1023.33 1023.34 1023.56 1023.47 1023.47 1023.59 1023.72 1023.67 1023.44 1023.00 1022.56 1022.08
1023.84 1023.75 1023.65 1023.45 1023.20 1022.95 1022.72 1022.79 1023.04 1023.31 1023.42 1023.52 1023.64 1023.61 1023.43 1023.46 1023.57 1023.74 1023.24 1022.77 1022.26 1021.83
1023.69 1023.72 1023.69 1023.38 1023.05 1022.94 1022.92 1023.00 1023.29 1023.54 1023.63 1023.67 1023.68 1023.67 1023.45 1023.32 1023.23 1023.20 1022.92 1022.58 1022.07 1021.62
Thickness
5511 5504 5497 5490 5483 5475 5466 5458 5449 5438 5427 5414 5400 5387 5373 5362 5351 5340 5327 5315 5304 5299
5501 5494 5487 5480 5471 5461 5452 5442 5431 5417 5402 5387 5374 5362 5349 5336 5326 5312 5303 5294 5284 5279
5489 5481 5472 5463 5455 5447 5436 5422 5408 5394 5382 5370 5356 5341 5327 5313 5301 5290 5282 5275 5267 5263
5472 5464 5457 5449 5440 5429 5416 5402 5390 5376 5364 5351 5336 5321 5304 5290 5280 5273 5266 5260 5255 5249
5461 5452 5442 5432 5422 5411 5401 5388 5373 5358 5343 5330 5316 5300 5283 5272 5264 5260 5255 5249 5243 5237
5446 5436 5426 5418 5408 5396 5383 5370 5357 5340 5322 5307 5294 5281 5270 5260 5254 5250 5244 5239 5233 5231
5432 5422 5412 5402 5392 5379 5366 5351 5335 5319 5303 5289 5276 5265 5255 5248 5244 5240 5235 5230 5226 5221
5417 5407 5397 5386 5374 5359 5343 5328 5312 5299 5285 5274 5269 5258 5247 5241 5237 5232 5229 5224 5218 5212
5402 5391 5379 5367 5353 5339 5324 5308 5295 5283 5274 5267 5261 5251 5243 5237 5232 5226 5221 5216 5211 5204
5386 5373 5360 5347 5332 5317 5302 5290 5279 5272 5266 5259 5252 5244 5237 5231 5224 5217 5212 5206 5200 5197
5368 5354 5341 5328 5315 5300 5288 5278 5270 5263 5256 5251 5244 5237 5231 5223 5215 5209 5202 5197 5192 5188
5350 5338 5324 5311 5297 5286 5277 5268 5261 5255 5249 5244 5235 5230 5223 5216 5208 5201 5196 5190 5185 5181
5333 5319 5305 5293 5283 5273 5265 5258 5252 5247 5241 5236 5228 5221 5216 5209 5201 5192 5190 5185 5181 5175
5317 5302 5287 5278 5270 5262 5254 5249 5244 5238 5233 5228 5221 5214 5209 5203 5195 5189 5184 5179 5177 5172